Location: Delettes
(50.6178°N, 2.2123°E)
Time: 05:27:48
(UTC+00:00)

Cosmos 1703 Rocket - Pass Details

Date: 27 February 2020
Orbit: 606 x 633 km, 82.5° (Epoch: 30 March)

Event Time Altitude Azimuth Distance (km) Brightness Sun altitude
Rises 18:57:27 0° 346° (NNW) 2,929 7.3 -14.9°
Reaches altitude 10° 18:59:43 10° 343° (NNW) 2,020 6.5 -15.3°
Maximum altitude 19:04:07 59° 265° (W) 732 4.2 -16.0°
Drops below altitude 10° 19:08:31 10° 186° (S) 2,012 6.2 -16.6°
Sets 19:10:45 0° 182° (S) 2,916 7.0 -17.0°
